[[{"header":{"parameterUnit":"m.s-1","parameterCategory":1,"la1":30.2991,"la2":30.254,"lo1":-89.0895,"lo2":-89.0444,"dy":0.0017,"dx":0.0017,"nx":28,"ny":28,"refTime":"2024-03-25T09:00:00:Z","depth":0,"parameterNumber":2,"parameterNumberName":"U-component_of_WINDS"},"data":[0,0,0,0,0,0,0,0,0,0,0,0,0,0,0,0,0,0,0,0,0,0,0,0,0,0,0,0,0,0,0,0,0,0,0,0,0,0,0,0,0,0,0,0,0,0,0,0,0,0,0,0,0,0,0,0,0,0,2.1995,2.1994,0,2.1921,2.192,2.1919,2.1822,2.182,2.1819,2.1817,2.174,2.174,2.1739,0,0,0,0,0,0,0,0,0,0,0,0,0,2.2049,2.2048,2.1995,2.1994,2.1993,2.1921,2.192,2.1919,2.1822,2.182,2.1818,2.1816,2.1741,2.174,2.1739,0,0,0,0,0,0,0,0,0,0,0,0,0,2.2005,2.2048,2.1995,2.1936,2.193,2.1921,2.192,2.1919,2.1823,2.182,2.1818,2.1815,2.1741,2.174,2.1739,2.1782,0,0,2.1737,2.1736,0,0,0,0,0,0,0,0,2.2008,2.2003,2.1946,2.194,2.1933,2.1878,2.1911,2.1873,2.1823,2.1863,2.1817,2.1814,2.1788,2.1783,2.1775,2.1779,2.1775,2.1737,2.1736,2.1736,2.1736,0,0,0,0,0,0,0,2.2011,2.2006,2.1966,2.1945,2.1937,2.1912,2.1903,2.1903,2.184,2.186,2.1852,2.1845,2.1784,2.1776,2.1772,2.1774,2.1737,2.1736,2.1735,2.1735,2.1806,2.1809,0,0,0,0,0,0,2.2023,2.2009,2.1968,2.1963,2.1965,2.1913,2.1903,2.1898,2.184,2.1829,2.1847,2.1841,2.1778,2.1773,2.1769,2.1814,2.1736,2.1735,2.1735,2.1804,2.1807,2.1809,0,0,0,0,0,0,2.2025,2.202,2.1971,2.1984,2.1976,2.1915,2.191,2.1898,2.1889,2.183,2.1818,2.185,2.1776,2.177,2.1779,2.181,2.1735,2.1734,2.1801,2.1805,2.1808,2.1905,0,0,0,0,0,0,2.2027,2.2021,2.2038,2.1985,2.1976,2.1984,2.1912,2.1898,2.1888,2.1879,2.183,2.182,2.1774,2.1781,2.1778,2.1807,2.1733,2.1798,2.1803,2.1807,2.1899,2.1912,2.1922,0,0,0,0,0,2.2029,2.2069,2.204,2.2035,2.1995,2.1986,2.198,2.1927,2.1891,2.1907,2.1868,2.1821,2.1807,2.1783,2.1779,2.1808,2.1796,2.1801,2.1807,2.1894,2.1909,2.1922,0,0,0,0,0,0,2.2127,2.2061,2.2028,2.2052,2.2025,2.1969,2.1988,2.1945,2.1928,2.192,2.1854,2.1844,2.186,2.1835,2.1809,2.1845,2.1794,2.1799,2.1861,2.1876,2.1887,2.1893,2.1733,0,0,0,0,0,2.2152,2.215,2.2092,2.2119,2.2107,2.205,2.2044,2.2005,2.1974,2.1962,2.1924,2.1896,2.1884,2.1878,2.1865,2.1894,2.1881,2.1912,2.1924,2.1934,2.1939,2.195,2.1962,2.1827,2.1827,2.1827,0,0,2.2203,2.2166,2.2169,2.2138,2.2112,2.2111,2.2041,2.2043,2.2041,2.1962,2.1968,2.1939,2.1902,2.1921,2.1928,2.1901,2.1973,2.1941,2.1949,2.1948,2.1956,2.1969,2.1981,2.1831,2.183,2.1829,0,0,2.2294,2.2267,2.2286,2.2261,2.2223,2.2184,2.2189,2.2139,2.2116,2.2121,2.2061,2.2057,2.2039,2.2015,2.2,2.208,2.2035,2.2077,2.2138,2.215,2.216,2.2169,2.2196,2.2207,2.2082,2.2082,2.2082,0,2.2362,2.2359,2.2301,2.2306,2.2293,2.2221,2.2238,2.2217,2.2177,2.2169,2.2139,2.2113,2.2084,2.2094,2.2113,2.2104,2.2106,2.2083,2.2164,2.2172,2.218,2.2204,2.2215,2.2087,2.2087,2.2086,2.2086,0,2.2443,2.2441,2.246,2.2423,2.2412,2.2423,2.2366,2.2361,2.2322,2.2286,2.229,2.2252,2.2228,2.2227,2.219,2.2232,2.2216,2.2176,2.2123,2.2199,2.2221,2.223,2.2095,2.2093,2.2092,2.209,0,0,2.2596,2.2525,2.2533,2.2514,2.2466,2.2463,2.2469,2.2446,2.2443,2.2417,2.2419,2.2405,2.2366,2.235,2.2308,2.2318,2.2381,2.2276,2.2274,2.2296,2.2422,2.2452,2.2464,2.235,2.2352,2.2353,2.2424,0,2.2678,2.2687,2.2634,2.2656,2.2653,2.2583,2.2588,2.2558,2.2524,2.2515,2.2476,2.2466,2.2417,2.2406,2.2413,2.2372,2.2405,2.2366,2.2351,2.2351,2.2362,2.2476,2.2509,2.2578,2.2433,2.2434,2.2435,0,2.2776,2.2755,2.2777,2.2725,2.2722,2.2728,2.2701,2.2693,2.2657,2.263,2.2611,2.2563,2.2563,2.2513,2.2511,2.2486,2.2476,2.2455,2.2456,2.2453,2.2398,2.2475,2.2599,2.261,2.2449,2.2447,2.2447,0,2.2885,2.2861,2.2871,2.2857,2.2797,2.2803,2.2778,2.2739,2.2728,2.2703,2.2694,2.2671,2.2657,2.2639,2.2584,2.2553,2.2589,2.2534,2.2565,2.2567,2.2577,2.2577,2.2701,2.2571,2.2571,2.2571,2.2571,0,2.2982,2.2998,2.2919,2.2925,2.294,2.2877,2.2893,2.2861,2.2826,2.2823,2.2761,2.2759,2.2688,2.2677,2.2634,2.2638,2.2633,2.261,2.2599,2.2616,2.2619,2.2609,2.2602,2.2574,2.2573,2.2572,2.2572,0,2.3106,2.3054,2.3059,2.3002,2.2988,2.3001,2.2951,2.2953,2.2913,2.291,2.2906,2.2844,2.2828,2.2771,2.2741,2.2712,2.2729,2.2707,2.2742,2.2735,2.2769,2.2766,2.289,2.2902,2.2766,2.2768,2.2769,0,2.3172,2.3182,2.3125,2.3119,2.3097,2.3088,2.3076,2.3013,2.3003,2.296,2.2967,2.2946,2.2926,2.2903,2.2854,2.2829,2.2806,2.2851,2.2802,2.2818,2.2805,2.2805,2.2805,2.2862,2.2864,2.2865,2.2866,0,2.3293,2.3266,2.3251,2.3227,2.3214,2.3192,2.3165,2.3163,2.3093,2.3084,2.3067,2.3052,2.302,2.2999,2.2966,2.2938,2.289,2.2882,2.2888,2.2905,2.2925,2.2913,2.2771,2.288,2.2878,2.2877,2.2877,2.2876,2.3389,2.3394,2.3355,2.3339,2.3313,2.3289,2.3288,2.3248,2.3233,2.3203,2.3167,2.3154,2.3113,2.3064,2.3039,2.3026,2.3,2.3009,2.3011,2.3014,2.3022,2.2927,2.302,2.302,2.3019,2.3019,2.3019,0,2.3506,2.3477,2.3463,2.3429,2.3416,2.3372,2.334,2.3332,2.3322,2.3288,2.3269,2.3248,2.3227,2.3175,2.3148,2.3147,2.3124,2.3142,2.3141,2.3135,2.3047,2.3045,2.3161,2.3161,2.3161,2.3161,2.3161,2.3161,2.3566,2.3572,2.354,2.3531,2.3501,2.3489,2.3474,2.345,2.3423,2.3403,2.3385,2.3352,2.331,2.3279,2.3256,2.3241,2.3233,2.3258,2.3236,2.3155,2.3142,2.3129,2.3126,2.3258,2.3258,2.3325,2.3326,2.3326]},{"header":{"parameterUnit":"m.s-1","parameterCategory":1,"la1":30.2991,"la2":30.254,"lo1":-89.0895,"lo2":-89.0444,"dy":0.0017,"dx":0.0017,"nx":28,"ny":28,"refTime":"2024-03-25T09:00:00:Z","depth":0,"parameterNumber":3,"parameterNumberName":"V-component_of_WINDS"},"data":[0,0,0,0,0,0,0,0,0,0,0,0,0,0,0,0,0,0,0,0,0,0,0,0,0,0,0,0,0,0,0,0,0,0,0,0,0,0,0,0,0,0,0,0,0,0,0,0,0,0,0,0,0,0,0,0,0,0,2.891,2.8913,0,2.927,2.9274,2.9278,2.9373,2.937,2.9368,2.9366,2.9746,2.9758,2.977,0,0,0,0,0,0,0,0,0,0,0,0,0,2.8312,2.8322,2.8909,2.8914,2.8918,2.9269,2.9274,2.9279,2.9373,2.937,2.9368,2.9365,2.9742,2.9756,2.9771,0,0,0,0,0,0,0,0,0,0,0,0,0,2.8612,2.8326,2.8909,2.9007,2.902,2.9268,2.9274,2.9281,2.9374,2.937,2.9367,2.9364,2.9737,2.9755,2.9773,2.9953,0,0,2.9829,2.9837,0,0,0,0,0,0,0,0,2.8595,2.8634,2.8988,2.9001,2.9015,2.9273,2.9203,2.9506,2.9374,2.924,2.9366,2.9362,2.9592,2.9622,2.9697,2.997,2.9987,2.9831,2.9842,2.9849,2.9855,0,0,0,0,0,0,0,2.8574,2.8619,2.9052,2.8993,2.901,2.9037,2.9076,2.9261,2.9431,2.9251,2.9259,2.9299,2.9599,2.9679,2.9707,2.9992,2.983,2.9846,2.9858,2.9865,3.0432,3.0436,0,0,0,0,0,0,2.8535,2.8601,2.9041,2.9063,2.8792,2.905,2.9094,2.9194,2.9429,2.9461,2.9302,2.9302,2.965,2.9685,2.9721,2.9947,2.9849,2.9866,2.9877,3.0428,3.0433,3.0438,0,0,0,0,0,0,2.8522,2.8573,2.9026,2.8834,2.8894,2.9064,2.9175,2.9202,2.9283,2.9467,2.9499,2.9352,2.9649,2.9695,2.9894,2.9962,2.9875,2.9891,3.0423,3.043,3.0435,3.0401,0,0,0,0,0,0,2.8504,2.8568,2.8635,2.8835,2.8904,2.919,2.918,2.9212,2.9313,2.9317,2.9523,2.9554,2.965,2.9866,2.9912,2.9985,2.9906,3.0418,3.0426,3.0433,3.0397,3.0405,3.0412,0,0,0,0,0,2.8482,2.8614,2.8638,2.8691,2.8991,2.9194,2.9234,2.9338,2.9318,2.9389,2.9507,2.9547,2.9946,2.9885,2.9938,3.0018,3.0414,3.0424,3.0433,3.0393,3.0403,3.0412,0,0,0,0,0,0,2.8422,2.8642,2.8672,2.8871,2.9012,2.9209,2.9302,2.9345,2.9499,2.9497,2.9623,2.9669,2.9859,2.9959,2.9887,3.0205,3.0181,3.0201,3.0133,3.0144,3.0151,3.0125,2.9921,0,0,0,0,0,2.8431,2.8573,2.8759,2.8917,2.8986,2.9131,2.9224,2.9291,2.9445,2.9507,2.964,2.979,2.9949,3.0052,3.0209,3.0411,3.0458,3.0492,3.0499,3.0505,3.0522,3.0637,3.0655,3.0468,3.0468,3.0468,0,0,2.8453,2.859,2.8674,2.8909,2.9026,2.9174,2.9182,2.9338,2.9451,2.9532,2.9727,2.9829,3.0006,3.0206,3.0302,3.0296,3.0583,3.0517,3.0519,3.0534,3.0648,3.0666,3.0681,3.0474,3.0473,3.0472,0,0,2.8568,2.8685,2.883,2.8947,2.9124,2.9219,2.9253,2.9444,2.9514,2.9711,2.9775,2.9912,3.0183,3.0306,3.0405,3.0564,3.0608,3.0612,3.0654,3.0765,3.0779,3.0793,3.0852,3.0871,3.0628,3.0628,3.0628,0,2.8574,2.8796,2.89,2.9053,2.9155,2.9231,2.938,2.949,2.971,2.9781,2.9769,3.0111,3.0235,3.0466,3.0505,3.0581,3.0627,3.0591,3.0768,3.0783,3.0797,3.0855,3.0876,3.0627,3.0627,3.0628,3.0628,0,2.8795,2.8948,2.9045,2.9251,2.9364,2.9515,2.9644,2.9747,2.9804,2.9901,3.0102,3.0253,3.0441,3.0501,3.056,3.0742,3.0732,3.0742,3.0722,3.0813,3.0869,3.0892,3.0627,3.0627,3.0627,3.0627,0,0,2.8885,2.9145,2.9178,2.9273,2.9473,2.9596,2.975,2.9931,3.0017,3.0166,3.0301,3.0528,3.0538,3.065,3.0723,3.082,3.0939,3.082,3.0826,3.0838,3.115,3.1141,3.1165,3.0968,3.0972,3.0976,3.1135,0,2.9026,2.9301,2.9398,2.9626,2.977,2.9844,2.9979,3.0118,3.0213,3.0351,3.0458,3.0617,3.0618,3.0686,3.0785,3.0903,3.1004,3.0893,3.1098,3.1104,3.1052,3.1194,3.1187,3.133,3.1158,3.1162,3.1165,0,2.9228,2.9376,2.9617,2.9798,2.9863,2.9982,3.0155,3.0286,3.0446,3.0508,3.063,3.0697,3.0865,3.0831,3.1065,3.0988,3.1077,3.1148,3.1156,3.1181,3.1141,3.1225,3.1378,3.14,3.12,3.1197,3.1195,0,2.927,2.953,2.9708,2.9787,3.0003,3.0085,3.0179,3.0335,3.0438,3.0591,3.0659,3.083,3.0925,3.1057,3.1169,3.1134,3.1394,3.137,3.1453,3.145,3.1506,3.1502,3.1677,3.156,3.156,3.156,3.1559,0,2.9419,2.9564,2.973,2.9839,3.0005,3.0116,3.0278,3.0378,3.0516,3.0648,3.0723,3.0847,3.0986,3.1129,3.1218,3.1399,3.1441,3.1498,3.1521,3.1493,3.1486,3.1555,3.1549,3.1565,3.1564,3.1563,3.1562,0,2.9495,2.9612,2.9811,2.9997,3.0048,3.0162,3.0324,3.0435,3.0531,3.0698,3.0744,3.0898,3.107,3.1193,3.1416,3.1476,3.1671,3.1692,3.1616,3.1627,3.1704,3.1696,3.1932,3.197,3.1825,3.1826,3.1827,0,2.9583,2.9696,2.9894,2.9986,3.0079,3.0227,3.0331,3.0446,3.0552,3.0741,3.083,3.1005,3.1152,3.1423,3.1558,3.1728,3.1756,3.1827,3.1782,3.1751,3.1759,3.1751,3.1764,3.1834,3.1835,3.1836,3.1836,0,2.9727,2.9779,2.9924,3.0089,3.021,3.0346,3.0484,3.0557,3.0696,3.0812,3.0986,3.1099,3.1324,3.1499,3.1682,3.1784,3.1835,3.1848,3.1877,3.1851,3.1802,3.1831,3.1635,3.1843,3.1843,3.1842,3.1842,3.1841,2.9814,2.9917,3.0072,3.0232,3.0346,3.0473,3.0586,3.0696,3.0842,3.1032,3.1091,3.1272,3.1431,3.1681,3.1785,3.193,3.1928,3.1969,3.198,3.1989,3.1988,3.1777,3.1964,3.1964,3.1964,3.1964,3.1964,0,2.9963,3.0065,3.021,3.0399,3.0525,3.0557,3.0711,3.0815,3.0972,3.1114,3.1255,3.1456,3.1626,3.1771,3.1948,3.2036,3.2064,3.2079,3.2075,3.2098,3.1979,3.1937,3.2054,3.2054,3.2054,3.2053,3.2053,3.2053,3.0055,3.0232,3.0302,3.0538,3.0641,3.0816,3.0901,3.102,3.1133,3.1352,3.1492,3.1584,3.1729,3.1916,3.2074,3.2113,3.2175,3.2185,3.223,3.2117,3.2106,3.2096,3.2057,3.2197,3.2197,3.2337,3.2338,3.2339]}]]